EW4750 Weather Reports


time (UTC)temp
C
wind
direction
speed
KPH
gust
KPH
rain 1hr
cm
rain 24hr
cm
rain mn
cm
humidity
%
barometer
mb
20260505090050 15 360 9.7 14.5 0.00 0.00 0.00 64 1006.6
20260505084539 16 360 8.0 17.7 0.00 0.00 0.00 61 1006.5
20260505083038 15 360 8.0 16.1 0.00 0.00 0.00 62 1006.4
20260505081543 16 360 8.0 14.5 0.00 0.00 0.00 61 1006.5
20260505080047 16 360 6.4 12.9 0.00 0.00 0.00 59 1006.4
20260505074531 16 360 6.4 17.7 0.00 0.00 0.00 58 1006.5
20260505073039 16 360 6.4 11.3 0.00 0.00 0.00 57 1006.3
20260505071526 16 360 8.0 12.9 0.00 0.00 0.00 57 1006.2
20260505070024 17 360 8.0 14.5 0.00 0.00 0.00 55 1006.1
20260505064522 18 360 6.4 17.7 0.00 0.00 0.00 51 1006.0
20260505063022 18 360 8.0 14.5 0.00 0.00 0.00 50 1005.9
20260505061522 18 360 4.8 12.9 0.00 0.00 0.00 49 1005.9
20260505060025 18 360 8.0 12.9 0.00 0.00 0.00 49 1005.9
20260505054523 18 360 8.0 16.1 0.00 0.00 0.00 48 1005.8
20260505053021 18 360 6.4 12.9 0.00 0.00 0.00 49 1005.8
20260505051523 18 360 6.4 11.3 0.00 0.00 0.00 48 1005.7
20260505041535 20 360 8.0 12.9 0.00 0.00 0.00 45 1005.1
20260505040016 21 360 6.4 17.7 0.00 0.00 0.00 44 1004.9
20260505034515 21 360 6.4 19.3 0.00 0.00 0.00 43 1004.5
20260505033015 21 360 8.0 17.7 0.00 0.00 0.00 42 1004.3
20260505031517 22 360 11.3 19.3 0.00 0.00 0.00 41 1004.1
20260505030014 22 360 8.0 22.5 0.00 0.00 0.00 41 1003.9
20260505024513 23 227 11.3 22.5 0.00 0.00 0.00 40 1003.7
20260505023012 23 266 9.7 19.3 0.00 0.00 0.00 39 1003.6
20260505021511 24 254 11.3 24.1 0.00 0.00 0.00 38 1003.6
20260505020016 25 249 12.9 29.0 0.00 0.00 0.00 36 1003.5
20260505014511 26 213 14.5 25.7 0.00 0.00 0.00 34 1003.5
20260505013013 26 221 14.5 29.0 0.00 0.00 0.00 33 1003.6
20260505011511 26 231 11.3 30.6 0.00 0.00 0.00 33 1003.5
20260505010009 26 215 14.5 29.0 0.00 0.00 0.00 31 1003.5
20260505004507 27 204 12.9 29.0 0.00 0.00 0.00 32 1003.6
20260505003006 27 215 16.1 30.6 0.00 0.00 0.00 31 1003.6
20260505001505 27 215 16.1 25.7 0.00 0.00 0.00 31 1003.6
20260505000003 27 265 12.9 32.2 0.00 0.00 0.00 29 1003.6
20260504234502 27 254 14.5 37.0 0.00 0.00 0.00 30 1003.5
20260504233109 28 271 9.7 25.7 0.00 0.00 0.00 31 1003.5
20260504231600 28 266 12.9 24.1 0.00 0.00 0.00 30 1003.5
20260504230059 28 273 8.0 19.3 0.00 0.00 0.00 30 1003.6
20260504224609 29 289 3.2 12.9 0.00 0.00 0.00 30 1003.8
20260504223053 28 212 8.0 17.7 0.00 0.00 0.00 30 1004.1
20260504221550 28 267 1.6 11.3 0.00 0.00 0.00 28 1004.1
20260504220049 28 230 3.2 11.3 0.00 0.00 0.00 28 1004.3
20260504214546 28 265 4.8 11.3 0.00 0.00 0.00 27 1004.6
20260504213101 28 108 3.2 9.7 0.00 0.00 0.00 29 1004.8
20260504211541 27 106 3.2 12.9 0.00 0.00 0.00 28 1005.0
20260504210037 27 98 6.4 12.9 0.00 0.00 0.00 31 1005.2
20260504204534 27 78 4.8 12.9 0.00 0.00 0.00 28 1005.4
20260504203034 26 109 4.8 11.3 0.00 0.00 0.00 32 1005.5
20260504201533 26 88 8.0 14.5 0.00 0.00 0.00 33 1005.7
20260504200025 26 194 3.2 12.9 0.00 0.00 0.00 37 1005.8
20260504194522 25 121 3.2 9.7 0.00 0.00 0.00 45 1006.0
20260504193019 25 82 3.2 11.3 0.00 0.00 0.00 46 1006.2
20260504191515 24 76 3.2 11.3 0.00 0.00 0.00 48 1006.3
20260504190011 23 87 4.8 12.9 0.00 0.00 0.00 48 1006.5
20260504184513 23 139 4.8 12.9 0.00 0.00 0.00 49 1006.8
20260504183007 23 27 8.0 11.3 0.00 0.00 0.00 49 1006.8
20260504181504 22 59 6.4 9.7 0.00 0.00 0.00 47 1006.9
20260504180100 22 45 4.8 11.3 0.00 0.00 0.00 49 1006.9
20260504174612 21 139 1.6 9.7 0.00 0.00 0.00 49 1007.0
20260504173057 21 68 4.8 8.0 0.00 0.00 0.00 52 1007.2
20260504171550 20 355 3.2 8.0 0.00 0.00 0.00 53 1007.2
20260504110111 12 360 8.0 16.1 0.00 0.00 0.00 64 1007.5